Volver al catálogo

FENGYUN 1C DEB

ActivoPO
NORAD 31843·DEBRIS·🇨🇳 China

Lanzado May 10, 1999 desde Taiyuan Satellite Launch Center

Loading…

Próximos Pases (próximas 24 horas)

TLE

ActualizadoSource: Space-Track

Época: Sep 13, 2026, 17:35 UTC

1 31843U 99025CJH 26256.73317960  .00004330  00000-0  26656-2 0  9998
2 31843  99.2918 179.4882 0631825  34.4161 329.6256 13.36217182683668

Sigue FENGYUN 1C DEB en tiempo real con AllMySat

Download on the App Store